sat.trackr.live / text

‹ back to catalog

2025-055E

NORAD 63295 · 2025-055E

PAYLOAD ACTIVE UNKNOWN

§ Identity

Operator
Country
PRC
Launch date
2025-03-17
Launch site
JSC
Launch vehicle
Mass (kg)
RCS (m²)

External: N2YO · Heavens-Above · Gunter

§ Orbital elements

Epoch: 2026-09-22T23:10:38.320320Z

Period
95.10 min
Inclination
97.6624°
Eccentricity
0.0023727
Mean motion
15.14240134 rev/d
Perigee alt
506.9 km
Apogee alt
539.7 km
Semi-major
6,901.4 km
B*
3.0317e-4
RAAN
46.2101°
Arg perigee
118.6856°
Mean anomaly
241.6764°
Rev number
8,380

§ Raw data

2025-055E1 63295U 25055E   26265.96572130  .00005511  00000+0  30317-3 0  99942 63295  97.6624  46.2101 0023727 118.6856 241.6764 15.14240134 83805

JSON: /api/v1/satellites/63295 · /tle

For live sub-satellite position, see the globe view (requires WebGL).

§ Visibility from observer

Set your observer location to see the next 7 days of passes ≥ 10°. The values pass through the URL so the page stays shareable.

No JS? Fill the form by hand. The geolocation button needs JavaScript.